Location: Bastelaar
(51.0950°N, 3.8602°E)
Time: 23:47:07
(UTC+00:00)

ARIANE 6 FM1 Upper Stage - Visible Passes

Search period start: 24 January 2026 00:00
Search period end: 03 February 2026 00:00
Orbit: 522 x 610 km, 62.0° (Epoch: 24 January)

Date Brightness Start Highest point End Pass type
(mag) Time Alt. Az. Time Alt. Az. Time Alt. Az.
24 Jan 3.9 17:35:05 10° S 17:38:21 24° ESE 17:40:03 18° E visible
24 Jan 3.7 19:13:07 10° WSW 19:16:06 43° W 19:16:06 43° W visible
25 Jan 3.4 17:34:43 10° S 17:38:23 33° SE 17:40:38 19° ENE visible
25 Jan 3.7 19:13:25 10° WSW 19:16:40 41° WNW 19:16:40 41° WNW visible
26 Jan 3.0 17:34:31 10° SSW 17:38:25 46° SE 17:41:08 18° ENE visible
26 Jan 3.9 19:13:47 10° W 19:17:10 35° NW 19:17:10 35° NW visible
27 Jan 2.6 17:34:28 10° SSW 17:38:29 64° SE 17:41:34 16° NE visible
27 Jan 4.1 19:14:12 10° W 19:17:36 30° NNW 19:17:36 30° NNW visible
28 Jan 2.5 17:34:30 10° SW 17:38:34 87° SE 17:41:56 14° NE visible
28 Jan 4.3 19:14:38 10° W 19:17:57 25° NNW 19:17:57 25° NNW visible
29 Jan 2.8 17:34:38 10° SW 17:38:41 70° NW 17:42:15 13° NE visible
29 Jan 4.5 19:15:07 10° WNW 19:18:16 22° NNW 19:18:16 22° NNW visible
30 Jan 3.2 17:34:51 10° WSW 17:38:49 53° NW 17:42:30 11° NE visible
30 Jan 4.6 19:15:34 10° WNW 19:18:31 20° NNW 19:18:31 20° NNW visible
31 Jan 3.5 17:35:07 10° WSW 17:38:58 41° NNW 17:42:43 10° NE visible
31 Jan 4.7 19:16:01 10° NW 19:18:44 18° NNW 19:18:44 18° NNW visible
1 Feb 3.9 17:35:27 10° W 17:39:09 33° NNW 17:42:48 10° NE visible
1 Feb 4.8 19:16:26 10° NW 19:18:55 17° N 19:18:55 17° N visible
2 Feb 4.1 17:35:50 10° W 17:39:21 28° NNW 17:42:49 10° NE visible
2 Feb 4.8 19:16:47 10° NW 19:19:05 17° N 19:19:05 17° N visible
